• en France
  • Liste des pays
  • À 7 jours
  • Température de l'eau
  • Carte satellitaire
  • Carte météo
  • Widgets météo
  • user-avatar
    Se connecter

    Météo par heure à Kecskemét

    Ce jour, 19 Novembre, Dimanche

    Heure Température Précipitation Vent Pression Humidité
    00:00 +2°C° 0 mm 3 m/s 752 mmHg 78%
    01:00 +2°C° 0 mm 3 m/s 751 mmHg 77%
    02:00 +3°C° 0 mm 2 m/s 751 mmHg 78%
    03:00 +3°C° 0 mm 2 m/s 751 mmHg 78%
    04:00 +3°C° 0 mm 2 m/s 751 mmHg 79%
    05:00 +2°C° 0 mm 3 m/s 751 mmHg 80%
    06:00 +2°C° 0 mm 3 m/s 750 mmHg 80%
    07:00 +3°C° 0 mm 2 m/s 750 mmHg 82%
    08:00 +3°C° 0 mm 3 m/s 750 mmHg 76%
    09:00 +4°C° 0 mm 3 m/s 750 mmHg 70%
    10:00 +5°C° 0 mm 4 m/s 750 mmHg 65%
    11:00 +6°C° 0 mm 4 m/s 750 mmHg 62%
    12:00 +7°C° 0 mm 4 m/s 749 mmHg 58%
    13:00 +7°C° 0 mm 4 m/s 749 mmHg 56%
    14:00 +7°C° 0,1 mm 3 m/s 749 mmHg 59%
    15:00 +7°C° 0,1 mm 3 m/s 749 mmHg 63%
    16:00 +5°C° 0,1 mm 3 m/s 749 mmHg 66%
    17:00 +5°C° 0 mm 3 m/s 749 mmHg 69%
    18:00 +4°C° 0 mm 3 m/s 749 mmHg 72%
    19:00 +4°C° 0 mm 3 m/s 750 mmHg 75%
    20:00 +3°C° 0 mm 3 m/s 750 mmHg 76%
    21:00 +3°C° 0 mm 4 m/s 750 mmHg 76%
    22:00 +1°C° 0 mm 4 m/s 750 mmHg 77%
    23:00 +1°C° 0 mm 4 m/s 750 mmHg 76%

    Demain, 20 Novembre, Lundi

    Heure Température Précipitation Vent Pression Humidité
    00:00 +1°C° 0 mm 4 m/s 751 mmHg 75%
    01:00 +1°C° 0 mm 4 m/s 751 mmHg 75%
    02:00 +1°C° 0 mm 4 m/s 751 mmHg 75%
    03:00 0°C° 0 mm 4 m/s 751 mmHg 76%
    04:00 0°C° 0 mm 4 m/s 751 mmHg 76%
    05:00 0°C° 0 mm 5 m/s 751 mmHg 76%
    06:00 +1°C° 0 mm 5 m/s 751 mmHg 76%
    07:00 +1°C° 0 mm 6 m/s 751 mmHg 76%
    08:00 +2°C° 0 mm 6 m/s 752 mmHg 71%
    09:00 +3°C° 0 mm 7 m/s 752 mmHg 65%
    10:00 +5°C° 0 mm 8 m/s 753 mmHg 60%
    11:00 +5°C° 0 mm 8 m/s 753 mmHg 57%
    12:00 +5°C° 0 mm 8 m/s 753 mmHg 55%
    13:00 +6°C° 0 mm 7 m/s 752 mmHg 53%
    14:00 +5°C° 0 mm 6 m/s 753 mmHg 56%
    15:00 +6°C° 0 mm 5 m/s 753 mmHg 59%
    16:00 +5°C° 0 mm 4 m/s 753 mmHg 61%
    17:00 +4°C° 0 mm 4 m/s 753 mmHg 62%
    18:00 +4°C° 0 mm 4 m/s 753 mmHg 64%
    19:00 +4°C° 0 mm 4 m/s 753 mmHg 65%
    20:00 +4°C° 0 mm 4 m/s 753 mmHg 65%
    21:00 +4°C° 0 mm 4 m/s 753 mmHg 65%
    22:00 +3°C° 0 mm 4 m/s 753 mmHg 66%
    23:00 +3°C° 0 mm 4 m/s 753 mmHg 66%

    Après-demain, 21 Novembre, Mardi

    Heure Température Précipitation Vent Pression Humidité
    00:00 +3°C° 0 mm 3 m/s 753 mmHg 67%
    01:00 +3°C° 0 mm 3 m/s 753 mmHg 68%
    02:00 +3°C° 0,1 mm 3 m/s 752 mmHg 68%
    03:00 +3°C° 0,1 mm 3 m/s 752 mmHg 68%
    04:00 +3°C° 0,1 mm 3 m/s 751 mmHg 68%
    05:00 +3°C° 0,2 mm 4 m/s 751 mmHg 69%
    06:00 +3°C° 0,2 mm 4 m/s 750 mmHg 70%
    07:00 +2°C° 0,2 mm 5 m/s 750 mmHg 71%
    08:00 +3°C° 0,3 mm 5 m/s 750 mmHg 72%
    09:00 +5°C° 0,3 mm 5 m/s 750 mmHg 72%
    10:00 +4°C° 0,3 mm 6 m/s 750 mmHg 73%
    11:00 +5°C° 0,2 mm 6 m/s 749 mmHg 71%
    12:00 +7°C° 0,2 mm 6 m/s 749 mmHg 69%
    13:00 +7°C° 0,2 mm 6 m/s 749 mmHg 67%
    14:00 +7°C° 0,1 mm 6 m/s 749 mmHg 69%
    15:00 +7°C° 0,1 mm 5 m/s 749 mmHg 70%
    16:00 +7°C° 0,1 mm 5 m/s 749 mmHg 72%
    17:00 +7°C° 0,1 mm 5 m/s 749 mmHg 72%
    18:00 +7°C° 0,1 mm 5 m/s 749 mmHg 72%
    19:00 +8°C° 0,1 mm 6 m/s 750 mmHg 72%
    20:00 +8°C° 0 mm 6 m/s 750 mmHg 72%
    21:00 +8°C° 0 mm 6 m/s 750 mmHg 72%
    22:00 +8°C° 0 mm 6 m/s 750 mmHg 73%
    23:00 +7°C° 0 mm 6 m/s 751 mmHg 74%

    22 Novembre, Mercredi

    Heure Température Précipitation Vent Pression Humidité
    00:00 +7°C° 0 mm 6 m/s 751 mmHg 76%
    01:00 +7°C° 0 mm 5 m/s 751 mmHg 78%
    02:00 +7°C° 0 mm 5 m/s 751 mmHg 79%
    03:00 +7°C° 0 mm 5 m/s 751 mmHg 80%
    04:00 +7°C° 0 mm 4 m/s 752 mmHg 81%
    05:00 +7°C° 0 mm 4 m/s 752 mmHg 83%
    06:00 +7°C° 0 mm 3 m/s 752 mmHg 85%
    07:00 +7°C° 0 mm 2 m/s 753 mmHg 87%
    08:00 +8°C° 0 mm 2 m/s 753 mmHg 82%
    09:00 +9°C° 0 mm 3 m/s 754 mmHg 78%
    10:00 +10°C° 0 mm 3 m/s 754 mmHg 73%
    11:00 +10°C° 0 mm 2 m/s 754 mmHg 70%
    12:00 +12°C° 0 mm 2 m/s 754 mmHg 67%
    13:00 +13°C° 0 mm 1 m/s 754 mmHg 64%
    14:00 +12°C° 0 mm 1 m/s 754 mmHg 67%
    15:00 +11°C° 0 mm 1 m/s 754 mmHg 70%
    16:00 +11°C° 0 mm 1 m/s 754 mmHg 74%
    17:00 +10°C° 0 mm 1 m/s 754 mmHg 76%
    18:00 +9°C° 0 mm 2 m/s 754 mmHg 78%
    19:00 +8°C° 0 mm 2 m/s 754 mmHg 81%
    20:00 +8°C° 0 mm 2 m/s 754 mmHg 82%
    21:00 +8°C° 0 mm 2 m/s 755 mmHg 84%
    22:00 +7°C° 0 mm 2 m/s 755 mmHg 85%
    23:00 +7°C° 0 mm 2 m/s 755 mmHg 86%

    23 Novembre, Jeudi

    Heure Température Précipitation Vent Pression Humidité
    00:00 +7°C° 0 mm 2 m/s 755 mmHg 88%
    01:00 +7°C° 0 mm 2 m/s 755 mmHg 89%
    02:00 +7°C° 0 mm 2 m/s 755 mmHg 89%
    03:00 +6°C° 0 mm 2 m/s 755 mmHg 90%
    04:00 +6°C° 0 mm 2 m/s 755 mmHg 91%
    05:00 +6°C° 0 mm 2 m/s 755 mmHg 91%
    06:00 +6°C° 0 mm 2 m/s 756 mmHg 91%
    07:00 +5°C° 0 mm 2 m/s 756 mmHg 92%
    08:00 +7°C° 0 mm 2 m/s 757 mmHg 87%
    09:00 +8°C° 0 mm 2 m/s 757 mmHg 83%
    10:00 +9°C° 0 mm 2 m/s 757 mmHg 78%
    11:00 +10°C° 0 mm 2 m/s 757 mmHg 75%
    12:00 +12°C° 0 mm 2 m/s 757 mmHg 71%
    13:00 +13°C° 0 mm 2 m/s 757 mmHg 68%
    14:00 +12°C° 0 mm 1 m/s 757 mmHg 72%
    15:00 +11°C° 0 mm 1 m/s 757 mmHg 76%
    16:00 +9°C° 0 mm 0 m/s 757 mmHg 80%
    17:00 +9°C° 0 mm 0 m/s 757 mmHg 81%
    18:00 +10°C° 0 mm 1 m/s 758 mmHg 83%
    19:00 +9°C° 0 mm 1 m/s 758 mmHg 84%
    20:00 +9°C° 0 mm 1 m/s 758 mmHg 85%
    21:00 +9°C° 0 mm 1 m/s 758 mmHg 86%
    22:00 +8°C° 0 mm 1 m/s 758 mmHg 87%
    23:00 +7°C° 0 mm 0 m/s 758 mmHg 87%

    24 Novembre, Vendredi

    Heure Température Précipitation Vent Pression Humidité
    00:00 +7°C° 0 mm 0 m/s 758 mmHg 88%
    01:00 +6°C° 0 mm 0 m/s 758 mmHg 88%
    02:00 +6°C° 0 mm 0 m/s 758 mmHg 89%
    03:00 +6°C° 0 mm 0 m/s 758 mmHg 89%
    04:00 +6°C° 0 mm 0 m/s 758 mmHg 90%
    05:00 +6°C° 0 mm 1 m/s 758 mmHg 90%
    06:00 +6°C° 0 mm 1 m/s 758 mmHg 91%
    07:00 +6°C° 0 mm 1 m/s 758 mmHg 91%
    08:00 +7°C° 0 mm 1 m/s 758 mmHg 86%
    09:00 +8°C° 0 mm 1 m/s 759 mmHg 82%
    10:00 +10°C° 0 mm 1 m/s 759 mmHg 78%
    11:00 +11°C° 0 mm 1 m/s 759 mmHg 74%
    12:00 +11°C° 0 mm 1 m/s 758 mmHg 71%
    13:00 +12°C° 0 mm 1 m/s 758 mmHg 68%
    14:00 +11°C° 0 mm 1 m/s 758 mmHg 72%
    15:00 +11°C° 0 mm 1 m/s 758 mmHg 76%
    16:00 +10°C° 0 mm 1 m/s 758 mmHg 79%
    17:00 +9°C° 0 mm 1 m/s 758 mmHg 81%
    18:00 +9°C° 0 mm 1 m/s 758 mmHg 83%
    19:00 +9°C° 0 mm 1 m/s 758 mmHg 84%
    20:00 +8°C° 0 mm 1 m/s 758 mmHg 85%
    21:00 +8°C° 0 mm 1 m/s 758 mmHg 86%
    22:00 +8°C° 0 mm 1 m/s 759 mmHg 86%
    23:00 +7°C° 0 mm 1 m/s 759 mmHg 86%
    Voir plus